TimeCDT,TemperatureF,Dew PointF,Humidity,Sea Level PressureIn,VisibilityMPH,Wind Direction,Wind SpeedMPH,Gust SpeedMPH,PrecipitationIn,Events,Conditions,WindDirDegrees,DateUTC
12:15 AM,61.9,59.9,93,30.11,10.0,Calm,Calm,-,N/A,,Clear,0,2013-07-26 05:15:00
12:35 AM,61.3,59.9,95,30.11,10.0,Calm,Calm,-,N/A,,Clear,0,2013-07-26 05:35:00
12:55 AM,61.0,59.9,96,30.11,10.0,Calm,Calm,-,N/A,,Clear,0,2013-07-26 05:55:00
1:15 AM,60.4,59.2,96,30.10,10.0,Calm,Calm,-,N/A,,Clear,0,2013-07-26 06:15:00
1:35 AM,60.3,59.2,96,30.10,10.0,Calm,Calm,-,N/A,,Scattered Clouds,0,2013-07-26 06:35:00
1:55 AM,59.9,59.0,97,30.09,10.0,Calm,Calm,-,N/A,,Scattered Clouds,0,2013-07-26 06:55:00
2:15 AM,59.9,59.2,97,30.09,7.0,Calm,Calm,-,N/A,,Clear,0,2013-07-26 07:15:00
2:35 AM,59.4,58.5,97,30.09,10.0,Calm,Calm,-,N/A,,Clear,0,2013-07-26 07:35:00
2:55 AM,59.0,58.1,97,30.09,10.0,Calm,Calm,-,N/A,,Clear,0,2013-07-26 07:55:00
3:15 AM,59.0,58.1,97,30.09,10.0,Calm,Calm,-,N/A,,Scattered Clouds,0,2013-07-26 08:15:00
3:35 AM,59.0,58.1,97,30.09,10.0,Calm,Calm,-,N/A,,Overcast,0,2013-07-26 08:35:00
3:55 AM,59.2,59.0,99,30.08,4.0,Calm,Calm,-,N/A,,Overcast,0,2013-07-26 08:55:00
4:15 AM,59.2,59.0,99,30.08,0.8,Calm,Calm,-,N/A,,Overcast,0,2013-07-26 09:15:00
4:35 AM,58.6,58.6,100,30.08,0.5,Calm,Calm,-,N/A,Fog,Fog,0,2013-07-26 09:35:00
4:55 AM,58.3,58.3,100,30.09,1.2,Calm,Calm,-,N/A,,Overcast,0,2013-07-26 09:55:00
5:15 AM,58.1,58.1,100,30.09,5.0,Calm,Calm,-,N/A,,Mostly Cloudy,0,2013-07-26 10:15:00
5:35 AM,58.5,58.1,99,30.10,7.0,Calm,Calm,-,N/A,,Overcast,0,2013-07-26 10:35:00
5:55 AM,58.6,58.5,99,30.11,3.0,Calm,Calm,-,N/A,,Overcast,0,2013-07-26 10:55:00
6:15 AM,58.8,58.5,99,30.12,2.0,Calm,Calm,-,N/A,,Overcast,0,2013-07-26 11:15:00
6:35 AM,59.0,58.3,97,30.12,7.0,Calm,Calm,-,N/A,,Overcast,0,2013-07-26 11:35:00
6:55 AM,59.5,58.5,96,30.12,10.0,Calm,Calm,-,N/A,,Overcast,0,2013-07-26 11:55:00
7:15 AM,60.1,58.6,95,30.11,10.0,Calm,Calm,-,N/A,,Overcast,0,2013-07-26 12:15:00
7:35 AM,59.9,58.6,96,30.12,7.0,Calm,Calm,-,N/A,,Overcast,0,2013-07-26 12:35:00
7:55 AM,59.9,58.6,96,30.12,10.0,Calm,Calm,-,N/A,,Overcast,0,2013-07-26 12:55:00
8:15 AM,61.0,59.4,94,30.13,10.0,Calm,Calm,-,N/A,,Overcast,0,2013-07-26 13:15:00
8:35 AM,61.7,59.4,92,30.13,10.0,Calm,Calm,-,N/A,,Overcast,0,2013-07-26 13:35:00
8:55 AM,63.7,60.8,90,30.13,10.0,Calm,Calm,-,N/A,,Scattered Clouds,0,2013-07-26 13:55:00
9:15 AM,65.3,60.4,84,30.13,10.0,Calm,Calm,-,N/A,,Clear,0,2013-07-26 14:15:00
9:35 AM,67.5,61.2,80,30.12,10.0,Calm,Calm,-,N/A,,Clear,0,2013-07-26 14:35:00
9:55 AM,70.3,62.4,76,30.12,10.0,Calm,Calm,-,N/A,,Clear,0,2013-07-26 14:55:00
10:15 AM,72.3,62.6,71,30.12,10.0,Calm,Calm,-,N/A,,Clear,0,2013-07-26 15:15:00
10:35 AM,74.3,63.1,68,30.12,10.0,Calm,Calm,-,N/A,,Scattered Clouds,0,2013-07-26 15:35:00
10:55 AM,76.6,63.1,63,30.11,10.0,Calm,Calm,-,N/A,,Scattered Clouds,0,2013-07-26 15:55:00
11:15 AM,79.0,63.5,59,30.10,10.0,Calm,Calm,-,N/A,,Scattered Clouds,0,2013-07-26 16:15:00
11:35 AM,80.1,63.0,56,30.09,10.0,SE,5.8,-,N/A,,Mostly Cloudy,140,2013-07-26 16:35:00
12:15 PM,80.4,64.2,58,30.09,10.0,South,8.1,-,N/A,,Scattered Clouds,180,2013-07-26 17:15:00
12:35 PM,81.5,65.1,57,30.09,10.0,SSW,5.8,-,N/A,,Clear,200,2013-07-26 17:35:00
12:55 PM,81.5,64.8,57,30.08,10.0,South,5.8,-,N/A,,Scattered Clouds,190,2013-07-26 17:55:00
1:15 PM,82.6,65.3,56,30.07,10.0,South,6.9,-,N/A,,Scattered Clouds,190,2013-07-26 18:15:00
1:35 PM,82.6,65.1,55,30.07,10.0,SW,3.5,-,N/A,,Scattered Clouds,220,2013-07-26 18:35:00
1:55 PM,83.3,65.5,55,30.06,10.0,South,8.1,-,N/A,,Clear,180,2013-07-26 18:55:00
2:15 PM,84.0,65.7,54,30.06,10.0,South,9.2,-,N/A,,Scattered Clouds,180,2013-07-26 19:15:00
2:35 PM,82.9,64.9,54,30.05,10.0,SW,4.6,-,N/A,,Scattered Clouds,220,2013-07-26 19:35:00
2:55 PM,83.1,65.1,54,30.04,10.0,SSW,5.8,-,N/A,,Scattered Clouds,210,2013-07-26 19:55:00
3:15 PM,84.4,66.0,54,30.03,10.0,SSW,3.5,-,N/A,,Scattered Clouds,200,2013-07-26 20:15:00
3:35 PM,83.1,65.5,55,30.03,10.0,South,8.1,-,N/A,,Scattered Clouds,190,2013-07-26 20:35:00
3:55 PM,84.0,66.2,55,30.02,10.0,West,5.8,-,N/A,,Scattered Clouds,280,2013-07-26 20:55:00
4:15 PM,84.7,66.0,53,30.02,10.0,NW,4.6,-,N/A,,Scattered Clouds,310,2013-07-26 21:15:00
4:35 PM,82.6,65.8,57,30.03,10.0,Calm,Calm,-,N/A,,Clear,0,2013-07-26 21:35:00
4:55 PM,82.2,66.0,58,30.02,10.0,Calm,Calm,-,N/A,,Scattered Clouds,0,2013-07-26 21:55:00
5:15 PM,82.4,66.9,59,30.02,10.0,South,3.5,-,N/A,,Mostly Cloudy,190,2013-07-26 22:15:00
5:35 PM,83.7,66.7,57,30.02,10.0,South,3.5,-,N/A,,Mostly Cloudy,190,2013-07-26 22:35:00
5:55 PM,82.6,67.6,60,30.01,10.0,South,5.8,-,N/A,,Mostly Cloudy,170,2013-07-26 22:55:00
6:15 PM,81.3,67.6,63,30.01,10.0,SSW,3.5,-,N/A,,Mostly Cloudy,200,2013-07-26 23:15:00
6:35 PM,80.1,68.4,67,30.01,10.0,Calm,Calm,-,N/A,,Overcast,0,2013-07-26 23:35:00
6:55 PM,78.3,69.3,74,30.01,10.0,Calm,Calm,-,N/A,,Mostly Cloudy,0,2013-07-26 23:55:00
7:15 PM,77.0,69.3,77,30.01,10.0,WSW,3.5,-,N/A,,Mostly Cloudy,240,2013-07-27 00:15:00
7:35 PM,75.9,69.3,80,30.01,10.0,WSW,3.5,-,N/A,,Mostly Cloudy,240,2013-07-27 00:35:00
7:55 PM,75.4,68.9,80,30.02,10.0,WSW,10.4,-,N/A,,Mostly Cloudy,250,2013-07-27 00:55:00
8:15 PM,69.3,67.3,93,30.05,1.0,North,10.4,29.9,0.54,Rain,Heavy Rain,350,2013-07-27 01:15:00
8:35 PM,69.3,67.3,93,30.05,7.0,Calm,Calm,-,0.60,Rain,Rain,0,2013-07-27 01:35:00
8:55 PM,68.9,67.5,95,30.06,10.0,Calm,Calm,-,0.61,,Light Drizzle,0,2013-07-27 01:55:00
9:15 PM,68.9,68.2,98,30.06,10.0,Calm,Calm,-,N/A,,Scattered Clouds,0,2013-07-27 02:15:00
9:35 PM,68.9,68.4,98,30.06,7.0,Calm,Calm,-,N/A,,Scattered Clouds,0,2013-07-27 02:35:00
9:55 PM,68.7,68.4,99,30.06,5.0,Calm,Calm,-,N/A,,Mostly Cloudy,0,2013-07-27 02:55:00
10:15 PM,68.7,68.4,99,30.06,7.0,Calm,Calm,-,N/A,Thunderstorm,Mostly Cloudy,0,2013-07-27 03:15:00
10:35 PM,68.7,68.4,99,30.06,5.0,Calm,Calm,-,N/A,,Overcast,0,2013-07-27 03:35:00
10:55 PM,68.4,68.0,99,30.05,4.0,Calm,Calm,-,N/A,,Overcast,0,2013-07-27 03:55:00
11:15 PM,68.4,68.0,99,30.05,3.0,Calm,Calm,-,N/A,,Mostly Cloudy,0,2013-07-27 04:15:00
11:35 PM,68.0,67.3,98,30.05,7.0,Calm,Calm,-,N/A,,Mostly Cloudy,0,2013-07-27 04:35:00
11:55 PM,68.0,67.5,98,30.04,7.0,Calm,Calm,-,N/A,,Mostly Cloudy,0,2013-07-27 04:55:00